This is the latest recevied weather packets stored in our database for station/object DM4XI-13. If no packets are shown the sender has not sent any weather packets the latest 10 day(s).
| Time | Temp. | Humidity | Pressure | Rain* | Wind** | Luminosity | Snow |
|---|---|---|---|---|---|---|---|
| 1777821047 | 27.22° C | 23% | 1009.7 hPa | 0 mm | 0.45 m/s, 189° | 286 W/m² | - |
| 1777820985 | 27.78° C | 21% | 1009.7 hPa | 0 mm | 1.79 m/s, 199° | 278 W/m² | - |
| 1777820925 | 27.78° C | 21% | 1009.8 hPa | 0 mm | 1.34 m/s, 153° | 291 W/m² | - |
| 1777820864 | 27.78° C | 24% | 1009.6 hPa | 0 mm | 2.24 m/s, 189° | 296 W/m² | - |
| 1777820803 | 27.78° C | 22% | 1009.5 hPa | 0 mm | 1.34 m/s, 184° | 309 W/m² | - |
| 1777820742 | 27.78° C | 22% | 1009.6 hPa | 0 mm | 1.79 m/s, 172° | 308 W/m² | - |
| 1777820681 | 27.78° C | 22% | 1009.7 hPa | 0 mm | 1.34 m/s, 187° | 288 W/m² | - |
| 1777820620 | 27.78° C | 22% | 1009.6 hPa | 0 mm | 0.89 m/s, 184° | 307 W/m² | - |
| 1777820559 | 27.78° C | 22% | 1009.7 hPa | 0 mm | 1.34 m/s, 171° | 331 W/m² | - |
| 1777820498 | 27.22° C | 22% | 1009.7 hPa | 0 mm | 0.45 m/s, 258° | 333 W/m² | - |
| 1777820437 | 27.22° C | 22% | 1009.6 hPa | 0 mm | 0.45 m/s, 197° | 327 W/m² | - |
| 1777820376 | 27.22° C | 23% | 1009.7 hPa | 0 mm | 0.45 m/s, 184° | 323 W/m² | - |
| 1777820315 | 27.22° C | 23% | 1009.7 hPa | 0 mm | 0.89 m/s, 154° | 306 W/m² | - |
| 1777820254 | 27.22° C | 24% | 1009.8 hPa | 0 mm | 0.89 m/s, 166° | 311 W/m² | - |
| 1777820193 | 27.22° C | 23% | 1009.8 hPa | 0 mm | 1.34 m/s, 167° | 294 W/m² | - |
| 1777820132 | 27.22° C | 23% | 1009.8 hPa | 0 mm | 0.89 m/s, 179° | 274 W/m² | - |
| 1777820071 | 27.78° C | 22% | 1009.8 hPa | 0 mm | 1.34 m/s, 209° | 243 W/m² | - |
| 1777820010 | 27.78° C | 22% | 1010 hPa | 0 mm | 1.34 m/s, 157° | 279 W/m² | - |
| 1777819949 | 27.78° C | 22% | 1009.8 hPa | 0 mm | 1.34 m/s, 168° | 296 W/m² | - |
| 1777819888 | 27.78° C | 24% | 1009.6 hPa | 0 mm | 1.79 m/s, 146° | 296 W/m² | - |
| 1777819827 | 27.78° C | 22% | 1009.8 hPa | 0 mm | 1.34 m/s, 178° | 281 W/m² | - |
| 1777819766 | 27.78° C | 22% | 1009.7 hPa | 0 mm | 1.34 m/s, 227° | 298 W/m² | - |
| 1777819705 | 27.78° C | 23% | 1009.8 hPa | 0 mm | 1.34 m/s, 189° | 302 W/m² | - |
| 1777819644 | 27.78° C | 22% | 1009.6 hPa | 0 mm | 1.34 m/s, 202° | 305 W/m² | - |
| 1777819583 | 27.78° C | 22% | 1009.8 hPa | 0 mm | 0.89 m/s, 165° | 336 W/m² | - |
* Rain latest hour (hover to see other rain measurements)
** Current wind speed in m/s (hover to see current wind gust speed)